Location: Unspecified
(51.0000°N, 12.0000°E)
Time: 23:51:38
(UTC+01:00)

N. Korean satellite - Visible Passes

Search period start: 22 February 2018 00:00
Search period end: 04 March 2018 00:00
Orbit: 459 x 514 km, 97.2° (Epoch: 21 February)

Date Brightness Start Highest point End Pass type
(mag) Time Alt. Az. Time Alt. Az. Time Alt. Az.
22 Feb 10.1 05:55:32 10° NE 05:57:49 16° E 06:00:06 10° SE visible
22 Feb 7.2 18:08:56 10° S 18:12:21 60° W 18:15:51 10° NNW visible
23 Feb 10.5 19:21:54 10° W 19:22:36 10° W 19:23:17 10° WNW visible
24 Feb 9.7 18:56:04 10° SW 18:58:36 19° W 19:01:09 10° NW visible
25 Feb 9.3 06:17:05 10° NE 06:20:15 26° E 06:23:25 10° SSE visible
25 Feb 8.6 18:31:29 10° SSW 18:34:40 33° W 18:37:54 10° NNW visible
26 Feb 10.2 05:54:02 10° NE 05:56:19 15° E 05:58:35 10° SE visible
27 Feb 10.4 19:20:01 10° WSW 19:21:02 11° W 19:22:03 10° WNW visible
28 Feb 9.7 18:54:25 10° SW 18:57:01 19° W 18:59:40 10° NW visible
01 Mar 9.4 06:15:33 10° NE 06:18:43 26° E 06:21:53 10° SSE visible
01 Mar 8.6 18:29:52 10° SSW 18:33:05 34° W 18:36:24 10° NNW visible
02 Mar 10.2 05:52:31 10° NE 05:54:46 15° E 05:57:00 10° SE visible
03 Mar 10.3 19:18:10 10° WSW 19:19:26 12° W 19:20:43 10° WNW visible
